[[{"header":{"parameterUnit":"m.s-1","parameterCategory":2,"la1":30.2991,"la2":30.254,"lo1":-89.0895,"lo2":-89.0444,"dy":0.0017,"dx":0.0017,"nx":28,"ny":28,"refTime":"2025-04-10T21:00:00:Z","depth":"0","parameterNumber":2,"parameterNumberName":"U-component_of_CURRENTS"},"data":[0,0,0,0,0,0,0,0,0,0,0,0,0,0,0,0,0,0,0,0,0,0,0,0,0,0,0,0,0,0,0,0,0,0,0,0,0,0,0,0,0,0,0,0,0,0,0,0,0,0,0,0,0,0,0,0,0,0,0.2065,0.2064,0,0.2033,0.2033,0.2033,0.199,0.1989,0.1987,0.1986,0.2022,0.2024,0.2027,0,0,0,0,0,0,0,0,0,0,0,0,0,0.2174,0.2173,0.2066,0.2064,0.2063,0.2033,0.2033,0.2033,0.199,0.1989,0.1987,0.1985,0.2021,0.2024,0.2027,0,0,0,0,0,0,0,0,0,0,0,0,0,0.2141,0.2172,0.2066,0.2032,0.2028,0.2033,0.2033,0.2034,0.1991,0.1989,0.1986,0.1984,0.202,0.2024,0.2027,0.2095,0,0,0.2038,0.204,0,0,0,0,0,0,0,0,0.2143,0.2138,0.2038,0.2034,0.2029,0.2006,0.2084,0.2054,0.1991,0.2014,0.1986,0.1983,0.2019,0.2023,0.2033,0.2096,0.2098,0.2039,0.2041,0.2042,0.2043,0,0,0,0,0,0,0,0.2145,0.214,0.2061,0.2036,0.2031,0.2046,0.2039,0.2079,0.2038,0.2012,0.2006,0.199,0.2018,0.203,0.2033,0.2099,0.2038,0.2042,0.2044,0.2045,0.2188,0.2189,0,0,0,0,0,0,0.213,0.2142,0.2062,0.206,0.2072,0.2045,0.2037,0.2023,0.2036,0.2032,0.1992,0.1988,0.2025,0.2029,0.2035,0.2072,0.2042,0.2046,0.2048,0.2186,0.2188,0.219,0,0,0,0,0,0,0.2132,0.2123,0.2063,0.2093,0.2085,0.2044,0.2029,0.2023,0.2028,0.2018,0.2017,0.1999,0.2023,0.203,0.2078,0.2074,0.2047,0.205,0.2184,0.2187,0.2189,0.2175,0,0,0,0,0,0,0.2136,0.2125,0.2134,0.2092,0.2082,0.2073,0.203,0.2024,0.2016,0.2011,0.2025,0.2026,0.2022,0.2073,0.2081,0.2079,0.2053,0.2182,0.2185,0.2188,0.2173,0.2176,0.2179,0,0,0,0,0,0.214,0.216,0.2135,0.2126,0.2088,0.2073,0.2072,0.2041,0.2019,0.2036,0.2044,0.2025,0.2097,0.2078,0.2087,0.2085,0.218,0.2184,0.2188,0.2172,0.2176,0.2179,0,0,0,0,0,0,0.2213,0.2155,0.2127,0.2128,0.2101,0.2062,0.2086,0.2051,0.2072,0.2073,0.2061,0.2065,0.2095,0.2114,0.2093,0.2139,0.2131,0.2137,0.2115,0.2119,0.2122,0.2125,0.2056,0,0,0,0,0,0.2231,0.2218,0.2172,0.2165,0.2171,0.2132,0.2128,0.2095,0.209,0.2096,0.2093,0.2107,0.2124,0.2139,0.216,0.2207,0.2219,0.2211,0.2214,0.2216,0.2229,0.2269,0.2276,0.2202,0.2202,0.2202,0,0,0.2245,0.2216,0.2204,0.2179,0.2171,0.2165,0.2128,0.2125,0.2104,0.2103,0.2111,0.2121,0.214,0.217,0.2186,0.2183,0.2239,0.2221,0.2222,0.2234,0.2273,0.228,0.2287,0.2204,0.2204,0.2203,0,0,0.2255,0.2263,0.2253,0.2248,0.2224,0.2207,0.2204,0.2173,0.2161,0.2173,0.2153,0.2171,0.2206,0.2203,0.2211,0.2259,0.225,0.226,0.2281,0.232,0.2325,0.2331,0.2323,0.2328,0.2265,0.2265,0.2265,0,0.2271,0.2249,0.2251,0.225,0.2244,0.2224,0.2216,0.2214,0.2186,0.2188,0.2178,0.2212,0.2218,0.2241,0.2246,0.226,0.2274,0.2255,0.2321,0.2327,0.2333,0.2324,0.233,0.2265,0.2265,0.2265,0.2265,0,0.2258,0.226,0.2273,0.2252,0.2261,0.226,0.2246,0.2251,0.2237,0.2218,0.224,0.2255,0.2272,0.2269,0.2272,0.2309,0.23,0.2312,0.2302,0.2339,0.2327,0.2333,0.2265,0.2265,0.2265,0.2265,0,0,0.2216,0.225,0.2249,0.2249,0.2262,0.2255,0.2269,0.2263,0.2255,0.2264,0.2263,0.2292,0.2299,0.2311,0.2309,0.2341,0.2371,0.2349,0.2351,0.2324,0.2432,0.2268,0.2258,0.24,0.2402,0.2403,0.2395,0,0.2192,0.2194,0.2215,0.2216,0.2227,0.2246,0.2249,0.2249,0.2257,0.2264,0.2294,0.2303,0.2315,0.2317,0.2357,0.2375,0.2394,0.2371,0.2417,0.2418,0.2254,0.2262,0.2168,0.2141,0.2401,0.2402,0.2403,0,0.2153,0.2161,0.2167,0.2194,0.2202,0.2198,0.2214,0.2213,0.2244,0.2251,0.2293,0.2316,0.2366,0.2366,0.2435,0.2426,0.2433,0.2443,0.2443,0.2304,0.2266,0.2157,0.2142,0.2082,0.2412,0.2412,0.2411,0,0.2109,0.2125,0.2129,0.2139,0.2169,0.2171,0.218,0.2204,0.2204,0.2248,0.2254,0.2331,0.235,0.2415,0.2434,0.2453,0.2488,0.2514,0.2366,0.2353,0.2288,0.2265,0.2208,0.2556,0.2556,0.2556,0.2556,0,0.2082,0.2083,0.2105,0.2113,0.2094,0.2134,0.2126,0.2141,0.217,0.2165,0.2245,0.225,0.2371,0.2402,0.2439,0.2399,0.2495,0.2363,0.2345,0.2274,0.2251,0.2207,0.2186,0.2556,0.2556,0.2556,0.2556,0,0.2067,0.2073,0.2073,0.209,0.2079,0.2072,0.2081,0.2075,0.2109,0.2107,0.2124,0.2206,0.2252,0.2319,0.2393,0.236,0.2269,0.2316,0.219,0.2155,0.1943,0.1924,0.1744,0.1716,0.217,0.2166,0.2163,0,0.2072,0.207,0.2056,0.2017,0.2023,0.2012,0.1991,0.2029,0.2026,0.206,0.2052,0.2107,0.2122,0.2145,0.2128,0.2128,0.2115,0.1992,0.2002,0.1898,0.1868,0.1787,0.1776,0.1915,0.191,0.1906,0.1903,0,0.2065,0.2054,0.2045,0.1978,0.1935,0.1918,0.1902,0.1892,0.1927,0.1919,0.1917,0.1938,0.1946,0.1906,0.1868,0.1866,0.1858,0.1897,0.1864,0.1704,0.1547,0.1522,0.1927,0.1865,0.1869,0.1871,0.1873,0.1875,0.2025,0.2023,0.1977,0.1915,0.1857,0.1815,0.1787,0.1778,0.1755,0.1723,0.1777,0.1736,0.1717,0.1667,0.1638,0.1495,0.1551,0.1464,0.1463,0.14,0.1319,0.1584,0.1446,0.1447,0.1449,0.145,0.145,0,0.195,0.1945,0.1903,0.1813,0.174,0.1744,0.1705,0.1666,0.1606,0.158,0.1556,0.1448,0.1377,0.1354,0.1204,0.1099,0.1094,0.1068,0.1011,0.1041,0.1355,0.1291,0.1022,0.1022,0.1022,0.1022,0.1022,0.1022,0.1886,0.1838,0.1848,0.1701,0.1649,0.1563,0.1538,0.1471,0.1432,0.13,0.1201,0.1184,0.1127,0.0949,0.0824,0.0816,0.0786,0.0656,0.0717,0.1012,0.1052,0.1091,0.1028,0.0707,0.0707,0.0385,0.0382,0.038]},{"header":{"parameterUnit":"m.s-1","parameterCategory":2,"la1":30.2991,"la2":30.254,"lo1":-89.0895,"lo2":-89.0444,"dy":0.0017,"dx":0.0017,"nx":28,"ny":28,"refTime":"2025-04-10T21:00:00:Z","depth":"0","parameterNumber":3,"parameterNumberName":"V-component_of_CURRENTS"},"data":[0,0,0,0,0,0,0,0,0,0,0,0,0,0,0,0,0,0,0,0,0,0,0,0,0,0,0,0,0,0,0,0,0,0,0,0,0,0,0,0,0,0,0,0,0,0,0,0,0,0,0,0,0,0,0,0,0,0,0.069,0.069,0,0.0725,0.0725,0.0725,0.0734,0.0734,0.0734,0.0734,0.0747,0.0748,0.0748,0,0,0,0,0,0,0,0,0,0,0,0,0,0.0659,0.0659,0.069,0.069,0.0691,0.0725,0.0725,0.0725,0.0734,0.0734,0.0734,0.0734,0.0747,0.0748,0.0748,0,0,0,0,0,0,0,0,0,0,0,0,0,0.0679,0.0659,0.069,0.0701,0.0703,0.0725,0.0725,0.0725,0.0734,0.0734,0.0734,0.0734,0.0747,0.0748,0.0748,0.0751,0,0,0.075,0.075,0,0,0,0,0,0,0,0,0.0678,0.068,0.0699,0.0701,0.0702,0.0727,0.0719,0.0734,0.0734,0.072,0.0734,0.0734,0.074,0.0741,0.0745,0.0752,0.0753,0.075,0.075,0.075,0.0751,0,0,0,0,0,0,0,0.0676,0.0678,0.0701,0.07,0.0702,0.0715,0.0717,0.0722,0.0727,0.0721,0.0722,0.073,0.0741,0.0744,0.0745,0.0753,0.075,0.075,0.0751,0.0751,0.0787,0.0788,0,0,0,0,0,0,0.0675,0.0677,0.07,0.0702,0.0693,0.0716,0.0718,0.0717,0.0728,0.073,0.073,0.073,0.0743,0.0745,0.0746,0.0781,0.075,0.0751,0.0751,0.0786,0.0787,0.0788,0,0,0,0,0,0,0.0674,0.0677,0.0699,0.0693,0.0697,0.0716,0.0715,0.0718,0.0723,0.0735,0.0737,0.0732,0.0743,0.0745,0.0764,0.078,0.0751,0.0752,0.0786,0.0787,0.0787,0.0831,0,0,0,0,0,0,0.0673,0.0676,0.0675,0.0693,0.0697,0.071,0.0716,0.0719,0.0729,0.0729,0.0738,0.0739,0.0743,0.0763,0.0764,0.078,0.0752,0.0785,0.0786,0.0787,0.0829,0.0833,0.0837,0,0,0,0,0,0.0672,0.0681,0.0674,0.0678,0.0695,0.071,0.0713,0.0726,0.0729,0.073,0.0747,0.0739,0.0771,0.0765,0.0766,0.0782,0.0784,0.0786,0.0787,0.0827,0.0832,0.0837,0,0,0,0,0,0,0.0676,0.0683,0.0677,0.0688,0.0694,0.0713,0.0725,0.0726,0.0739,0.074,0.075,0.0753,0.0775,0.077,0.0762,0.0795,0.0775,0.0777,0.0805,0.081,0.0814,0.0822,0.0752,0,0,0,0,0,0.0672,0.0675,0.0682,0.0691,0.0696,0.0706,0.0715,0.0715,0.0732,0.0737,0.0748,0.076,0.0782,0.0789,0.0799,0.0817,0.0804,0.0826,0.083,0.0834,0.0841,0.0848,0.0853,0.0793,0.0792,0.0792,0,0,0.0677,0.0683,0.0684,0.0691,0.0701,0.0715,0.0711,0.0721,0.0734,0.0736,0.0762,0.0774,0.0789,0.0816,0.0824,0.0814,0.0841,0.0836,0.0839,0.0844,0.085,0.0856,0.0861,0.0793,0.0793,0.0793,0,0,0.0692,0.0692,0.0697,0.0704,0.0711,0.072,0.0722,0.0734,0.0739,0.076,0.0773,0.0797,0.0818,0.084,0.0854,0.0885,0.0863,0.0883,0.0913,0.092,0.0925,0.0929,0.0904,0.0905,0.0885,0.0886,0.0886,0,0.0693,0.07,0.0702,0.0713,0.0727,0.0725,0.0738,0.0747,0.0762,0.0781,0.077,0.0831,0.0833,0.0888,0.09,0.0895,0.0885,0.0895,0.0926,0.093,0.0934,0.0907,0.0908,0.0888,0.0888,0.0887,0.0887,0,0.0706,0.0716,0.0727,0.0737,0.0754,0.0762,0.0777,0.0788,0.0796,0.0814,0.0857,0.087,0.0911,0.0912,0.0918,0.0956,0.0933,0.0931,0.0914,0.0943,0.0912,0.0912,0.0891,0.089,0.089,0.0889,0,0,0.0682,0.0723,0.0724,0.0738,0.0762,0.0776,0.0808,0.0838,0.0872,0.0882,0.0936,0.0963,0.0975,0.099,0.0998,0.1001,0.1007,0.098,0.0979,0.0955,0.1001,0.0982,0.098,0.1014,0.1015,0.1016,0.0961,0,0.0682,0.0709,0.0734,0.0768,0.0783,0.0809,0.0845,0.0876,0.0908,0.0958,0.0979,0.1029,0.1004,0.1031,0.1033,0.1032,0.1015,0.1021,0.0975,0.0973,0.0955,0.0983,0.0978,0.093,0.0962,0.0962,0.0962,0,0.0674,0.0694,0.0723,0.0784,0.0795,0.0819,0.0884,0.0914,0.0988,0.1016,0.1072,0.11,0.1137,0.1099,0.1091,0.1098,0.1048,0.1023,0.102,0.0992,0.0958,0.091,0.093,0.0941,0.0963,0.0963,0.0963,0,0.0639,0.069,0.0714,0.0729,0.0792,0.0818,0.0856,0.0929,0.0971,0.1061,0.1115,0.1159,0.1191,0.1156,0.1114,0.1107,0.1084,0.1065,0.0988,0.0984,0.0966,0.096,0.0995,0.103,0.103,0.103,0.103,0,0.0621,0.064,0.0698,0.0704,0.0744,0.08,0.0858,0.0909,0.1,0.1073,0.1141,0.1208,0.1207,0.1208,0.1141,0.1077,0.11,0.0999,0.0981,0.0978,0.0974,0.097,0.0991,0.1028,0.1029,0.1029,0.1029,0,0.0579,0.0612,0.0638,0.07,0.0724,0.0748,0.0846,0.0899,0.0989,0.1091,0.1128,0.1243,0.126,0.1229,0.118,0.1113,0.1052,0.1002,0.0985,0.0968,0.0915,0.0939,0.0952,0.0968,0.092,0.092,0.0919,0,0.0562,0.0568,0.0621,0.0635,0.0661,0.0715,0.0764,0.0868,0.0941,0.1111,0.1166,0.1243,0.1304,0.124,0.1146,0.1033,0.103,0.0939,0.0925,0.0923,0.0936,0.095,0.0965,0.0901,0.0901,0.09,0.09,0,0.0519,0.0533,0.0551,0.0591,0.063,0.0698,0.0783,0.0848,0.0992,0.1089,0.1229,0.1296,0.128,0.1221,0.1093,0.1009,0.098,0.0924,0.094,0.0947,0.0948,0.0951,0.0904,0.0895,0.0896,0.0896,0.0896,0.0896,0.0482,0.0486,0.0515,0.0558,0.0603,0.0701,0.0773,0.0883,0.1008,0.119,0.124,0.1338,0.1278,0.1133,0.104,0.0911,0.0937,0.0863,0.0893,0.0907,0.0937,0.0867,0.0834,0.0835,0.0835,0.0835,0.0835,0,0.0445,0.0468,0.0497,0.0556,0.0609,0.0658,0.0805,0.09,0.1052,0.1183,0.129,0.1308,0.1219,0.112,0.096,0.0894,0.0878,0.0876,0.0907,0.0924,0.0869,0.0883,0.0839,0.0839,0.0839,0.0839,0.0839,0.0839,0.0425,0.0442,0.0478,0.0558,0.061,0.0727,0.0824,0.0962,0.1084,0.125,0.1308,0.1358,0.1336,0.1106,0.0981,0.0941,0.0964,0.0931,0.0961,0.0931,0.0933,0.0934,0.0952,0.0923,0.0924,0.1004,0.1005,0.1005]}],[{"header":{"parameterUnit":"m.s-1","parameterCategory":2,"la1":30.2991,"la2":30.254,"lo1":-89.0895,"lo2":-89.0444,"dy":0.0017,"dx":0.0017,"nx":28,"ny":28,"refTime":"2025-04-10T21:00:00:Z","depth":"2","parameterNumber":2,"parameterNumberName":"U-component_of_CURRENTS"},"data":[0,0,0,0,0,0,0,0,0,0,0,0,0,0,0,0,0,0,0,0,0,0,0,0,0,0,0,0,0,0,0,0,0,0,0,0,0,0,0,0,0,0,0,0,0,0,0,0,0,0,0,0,0,0,0,0,0,0,0.1345,0.1344,0,0.1436,0.1438,0.144,0.1488,0.1487,0.1486,0.1484,0.1457,0.1458,0.1458,0,0,0,0,0,0,0,0,0,0,0,0,0,0.1421,0.1419,0.1345,0.1344,0.1344,0.1435,0.1438,0.1441,0.1489,0.1487,0.1485,0.1484,0.1457,0.1457,0.1458,0,0,0,0,0,0,0,0,0,0,0,0,0,0.1451,0.1419,0.1345,0.1368,0.137,0.1435,0.1438,0.1441,0.1489,0.1487,0.1485,0.1483,0.1457,0.1457,0.1458,0.1502,0,0,0.146,0.1461,0,0,0,0,0,0,0,0,0.1449,0.1451,0.1365,0.1366,0.1368,0.1435,0.1454,0.1451,0.1489,0.146,0.1484,0.1482,0.143,0.1433,0.1478,0.1501,0.15,0.146,0.1461,0.1461,0.1461,0,0,0,0,0,0,0,0.1447,0.1448,0.1396,0.1364,0.1366,0.1444,0.1446,0.1457,0.1465,0.1462,0.1462,0.1449,0.1432,0.1478,0.1477,0.1499,0.146,0.1461,0.1462,0.1462,0.1537,0.1538,0,0,0,0,0,0,0.1396,0.1445,0.1393,0.1397,0.1388,0.1442,0.1445,0.1428,0.1467,0.1468,0.145,0.145,0.1477,0.1476,0.1476,0.1494,0.1461,0.1462,0.1462,0.1535,0.1537,0.1539,0,0,0,0,0,0,0.1397,0.1391,0.1389,0.1412,0.1415,0.1439,0.1423,0.1431,0.1485,0.1456,0.1457,0.1493,0.1476,0.1475,0.1471,0.1493,0.1462,0.1463,0.1533,0.1536,0.1538,0.1551,0,0,0,0,0,0,0.1399,0.1391,0.1404,0.1407,0.1411,0.1427,0.1423,0.1433,0.1471,0.1473,0.1494,0.1489,0.1474,0.147,0.1471,0.1494,0.1464,0.1531,0.1534,0.1537,0.1548,0.1553,0.1557,0,0,0,0,0,0.1402,0.1364,0.1404,0.1399,0.1413,0.1426,0.1439,0.1461,0.1475,0.1506,0.1499,0.1489,0.149,0.1471,0.1473,0.1496,0.153,0.1534,0.1537,0.1546,0.1552,0.1557,0,0,0,0,0,0,0.1368,0.1365,0.1408,0.1367,0.1412,0.1428,0.1447,0.1478,0.1513,0.152,0.1499,0.1494,0.1505,0.1505,0.1484,0.153,0.1514,0.1518,0.152,0.1526,0.153,0.1535,0.1464,0,0,0,0,0,0.1379,0.1389,0.1394,0.1389,0.1395,0.1448,0.1469,0.1498,0.1504,0.1523,0.1526,0.1531,0.1528,0.1525,0.1533,0.1553,0.1541,0.1575,0.1579,0.1583,0.159,0.1635,0.1644,0.155,0.155,0.155,0,0,0.1372,0.1372,0.1382,0.1393,0.1431,0.1438,0.1459,0.1494,0.1517,0.151,0.1541,0.155,0.1538,0.1554,0.1561,0.1549,0.1587,0.1587,0.159,0.1596,0.164,0.1649,0.1657,0.1552,0.1552,0.1552,0,0,0.1341,0.136,0.1363,0.1395,0.1442,0.1462,0.1471,0.1513,0.155,0.158,0.1578,0.1595,0.1599,0.1599,0.1593,0.1633,0.1613,0.1647,0.1667,0.171,0.1718,0.1725,0.1645,0.1645,0.1646,0.1646,0.1646,0,0.1374,0.1324,0.1371,0.1377,0.1388,0.146,0.1462,0.1513,0.1559,0.1599,0.1581,0.1626,0.1617,0.163,0.164,0.1642,0.163,0.1639,0.1715,0.1722,0.1729,0.1646,0.1646,0.1647,0.1647,0.1647,0.1646,0,0.1316,0.1315,0.1306,0.1344,0.1382,0.139,0.1442,0.1511,0.1553,0.1604,0.1657,0.1652,0.168,0.1682,0.1662,0.1718,0.1674,0.1716,0.1695,0.1739,0.1648,0.1647,0.1648,0.1648,0.1648,0.1647,0,0,0.133,0.1281,0.1298,0.1303,0.1361,0.138,0.1441,0.1508,0.1554,0.1625,0.1669,0.1685,0.1731,0.1728,0.1729,0.1754,0.1758,0.1758,0.176,0.1664,0.1772,0.1621,0.1604,0.1829,0.1831,0.1833,0.1659,0,0.13,0.1264,0.1255,0.1263,0.1248,0.1336,0.1379,0.1485,0.1549,0.1618,0.1683,0.1723,0.1732,0.1749,0.1783,0.1779,0.1772,0.1796,0.1757,0.1753,0.1606,0.1607,0.1573,0.1409,0.1658,0.1658,0.1658,0,0.1258,0.1237,0.1221,0.1216,0.1223,0.1247,0.1355,0.1407,0.1545,0.1618,0.1706,0.175,0.18,0.1809,0.1817,0.1838,0.1811,0.1792,0.1786,0.165,0.1605,0.1425,0.1399,0.1657,0.1657,0.1657,0.1657,0,0.1256,0.1211,0.1195,0.1203,0.1228,0.1264,0.1289,0.1424,0.1489,0.1636,0.1687,0.1771,0.1816,0.1825,0.1793,0.1824,0.1766,0.1805,0.1619,0.1603,0.1567,0.1545,0.1815,0.1816,0.1816,0.1817,0.1817,0,0.1195,0.1196,0.1186,0.1198,0.1177,0.1244,0.1304,0.1354,0.1482,0.1557,0.1684,0.1718,0.1845,0.1825,0.1783,0.1665,0.1761,0.1602,0.157,0.1558,0.1539,0.1777,0.1775,0.181,0.1811,0.1813,0.1814,0,0.117,0.1182,0.1177,0.1194,0.1177,0.1194,0.1257,0.1314,0.1445,0.1534,0.1589,0.1714,0.1683,0.1685,0.168,0.1636,0.1542,0.1477,0.1383,0.1344,0.1334,0.1335,0.1243,0.1237,0.1232,0.1227,0.1224,0,0.1137,0.1153,0.1159,0.1161,0.1149,0.1183,0.1207,0.1302,0.1349,0.1497,0.1495,0.1543,0.1545,0.1419,0.1381,0.124,0.133,0.1118,0.119,0.1307,0.1286,0.1296,0.1304,0.1109,0.1104,0.1101,0.1098,0,0.1092,0.1145,0.114,0.1121,0.113,0.1137,0.1141,0.1175,0.1321,0.1378,0.141,0.1424,0.1336,0.1225,0.108,0.1003,0.1141,0.1033,0.1236,0.1254,0.1167,0.115,0.1166,0.1066,0.1069,0.1072,0.1073,0.1075,0.1091,0.105,0.1073,0.1082,0.1107,0.1104,0.111,0.113,0.1192,0.1242,0.1266,0.1223,0.1166,0.0908,0.0813,0.0772,0.0843,0.0834,0.0853,0.0873,0.0884,0.0794,0.0616,0.0617,0.0617,0.0618,0.0618,0,0.0971,0.0975,0.0995,0.1007,0.1064,0.1079,0.108,0.1094,0.1117,0.1093,0.1096,0.0914,0.0795,0.0713,0.0624,0.057,0.0658,0.0526,0.068,0.071,0.0737,0.075,0.0441,0.0441,0.044,0.0439,0,0,0.0933,0.0887,0.0912,0.0989,0.1041,0.1067,0.109,0.1039,0.0995,0.0914,0.0839,0.079,0.0728,0.0578,0.0533,0.0498,0.0615,0.0474,0.0623,0.084,0.0867,0.0916,0.0967,0,0,0,0,0]},{"header":{"parameterUnit":"m.s-1","parameterCategory":2,"la1":30.2991,"la2":30.254,"lo1":-89.0895,"lo2":-89.0444,"dy":0.0017,"dx":0.0017,"nx":28,"ny":28,"refTime":"2025-04-10T21:00:00:Z","depth":"2","parameterNumber":3,"parameterNumberName":"V-component_of_CURRENTS"},"data":[0,0,0,0,0,0,0,0,0,0,0,0,0,0,0,0,0,0,0,0,0,0,0,0,0,0,0,0,0,0,0,0,0,0,0,0,0,0,0,0,0,0,0,0,0,0,0,0,0,0,0,0,0,0,0,0,0,0,0.0297,0.0297,0,0.0339,0.0339,0.0339,0.0367,0.0367,0.0368,0.0368,0.0366,0.0366,0.0365,0,0,0,0,0,0,0,0,0,0,0,0,0,0.029,0.0289,0.0296,0.0297,0.0298,0.0339,0.0339,0.0339,0.0367,0.0367,0.0368,0.0368,0.0366,0.0366,0.0365,0,0,0,0,0,0,0,0,0,0,0,0,0,0.0306,0.0289,0.0296,0.0318,0.0321,0.0339,0.0339,0.034,0.0367,0.0367,0.0368,0.0368,0.0366,0.0366,0.0365,0.035,0,0,0.0363,0.0363,0,0,0,0,0,0,0,0,0.0305,0.0306,0.0314,0.0317,0.032,0.035,0.0336,0.0342,0.0366,0.0347,0.0368,0.0369,0.0358,0.0358,0.0362,0.035,0.035,0.0363,0.0363,0.0363,0.0362,0,0,0,0,0,0,0,0.0304,0.0305,0.0311,0.0315,0.0318,0.0343,0.0345,0.0338,0.0346,0.0349,0.0351,0.0359,0.0358,0.0362,0.0362,0.035,0.0363,0.0363,0.0362,0.0362,0.035,0.035,0,0,0,0,0,0,0.03,0.0303,0.031,0.0312,0.0316,0.0343,0.0345,0.0338,0.0347,0.035,0.0359,0.036,0.0363,0.0363,0.0362,0.0393,0.0363,0.0362,0.0362,0.035,0.035,0.035,0,0,0,0,0,0,0.0299,0.0299,0.0308,0.0312,0.0315,0.0342,0.0334,0.0338,0.0353,0.0356,0.0358,0.037,0.0364,0.0363,0.0355,0.0391,0.0362,0.0361,0.0349,0.035,0.035,0.0423,0,0,0,0,0,0,0.0298,0.0298,0.0297,0.0311,0.0315,0.0326,0.0334,0.0339,0.0357,0.036,0.0365,0.0366,0.0364,0.0356,0.0354,0.039,0.0361,0.0349,0.0349,0.035,0.0421,0.0426,0.043,0,0,0,0,0,0.0298,0.0277,0.0296,0.0298,0.0309,0.0327,0.0331,0.0352,0.0358,0.0366,0.0361,0.0366,0.0356,0.0355,0.0353,0.039,0.0349,0.0349,0.035,0.0419,0.0425,0.043,0,0,0,0,0,0,0.0268,0.0279,0.03,0.0284,0.0315,0.0333,0.0329,0.0355,0.0359,0.0362,0.0359,0.0358,0.0375,0.0355,0.0354,0.0382,0.0356,0.0356,0.0409,0.0415,0.042,0.0413,0.036,0,0,0,0,0,0.0265,0.0264,0.0284,0.0285,0.0281,0.0311,0.0322,0.0351,0.0356,0.036,0.0367,0.0365,0.0372,0.037,0.0373,0.0374,0.0346,0.0395,0.04,0.0404,0.0395,0.0397,0.0402,0.035,0.035,0.035,0,0,0.0261,0.0267,0.027,0.0282,0.0292,0.0306,0.0317,0.0338,0.0366,0.0357,0.0374,0.0386,0.0376,0.0393,0.0398,0.0381,0.0399,0.0404,0.0408,0.0396,0.0398,0.0403,0.0408,0.035,0.035,0.035,0,0,0.0256,0.0245,0.0246,0.0259,0.0289,0.031,0.0318,0.0347,0.0362,0.0383,0.0395,0.0415,0.0411,0.0426,0.0426,0.0447,0.0431,0.0458,0.0473,0.0477,0.0482,0.0486,0.0439,0.0438,0.0454,0.0454,0.0454,0,0.0252,0.0256,0.0255,0.0257,0.0271,0.0309,0.0324,0.0342,0.0382,0.0405,0.0391,0.0434,0.0425,0.0464,0.0469,0.0463,0.0443,0.0461,0.0486,0.0489,0.0492,0.0443,0.0441,0.0457,0.0457,0.0456,0.0456,0,0.0256,0.0259,0.0248,0.0271,0.0289,0.0303,0.0331,0.0367,0.0391,0.0428,0.0474,0.0469,0.05,0.0506,0.0486,0.0522,0.0494,0.0502,0.0478,0.0502,0.0448,0.0445,0.0462,0.0461,0.046,0.0459,0,0,0.0241,0.025,0.0251,0.0266,0.0296,0.0313,0.0351,0.0404,0.0449,0.0481,0.0535,0.054,0.0568,0.0567,0.0574,0.0559,0.055,0.0534,0.0533,0.0498,0.0525,0.0541,0.0538,0.0577,0.0578,0.0578,0.0473,0,0.0249,0.0262,0.027,0.0301,0.0301,0.034,0.0374,0.0439,0.0483,0.0545,0.0566,0.0617,0.0583,0.0619,0.0602,0.058,0.0548,0.0575,0.0497,0.0493,0.0515,0.0538,0.0521,0.0431,0.0469,0.0469,0.0468,0,0.0252,0.0262,0.0281,0.0318,0.032,0.0351,0.0429,0.0471,0.0562,0.0605,0.0668,0.07,0.0715,0.0679,0.0623,0.0647,0.0581,0.0537,0.0533,0.052,0.0505,0.0416,0.0423,0.0463,0.0463,0.0463,0.0464,0,0.0249,0.0269,0.029,0.0295,0.0342,0.0368,0.0408,0.0495,0.055,0.066,0.0729,0.0756,0.0791,0.0721,0.0645,0.0637,0.0564,0.0548,0.0487,0.0484,0.0437,0.0432,0.0489,0.0489,0.0489,0.049,0.049,0,0.0239,0.025,0.0287,0.029,0.0336,0.0366,0.0437,0.05,0.0603,0.0696,0.076,0.0831,0.0807,0.0782,0.0671,0.0577,0.0586,0.0484,0.0472,0.0459,0.0458,0.0463,0.0462,0.0486,0.0487,0.0487,0.0488,0,0.0199,0.0236,0.0259,0.0308,0.0329,0.0359,0.045,0.0505,0.0614,0.0742,0.079,0.0891,0.0856,0.0795,0.0692,0.0631,0.0523,0.0481,0.045,0.0438,0.0415,0.0419,0.0385,0.0385,0.0385,0.0385,0.0385,0,0.0173,0.0179,0.025,0.0289,0.0302,0.0358,0.0404,0.0508,0.058,0.0769,0.0825,0.0877,0.0906,0.0773,0.0669,0.0505,0.0489,0.0415,0.0404,0.042,0.0411,0.0414,0.0417,0.0341,0.034,0.034,0.034,0,0.0104,0.014,0.0164,0.0257,0.0312,0.0367,0.044,0.0513,0.0661,0.0788,0.092,0.0959,0.0875,0.0754,0.0602,0.0489,0.0447,0.0405,0.0445,0.0395,0.0377,0.0369,0.0373,0.0337,0.0337,0.0338,0.0338,0.0338,0.0068,0.0064,0.0136,0.0232,0.0307,0.0391,0.0464,0.056,0.0708,0.0908,0.0922,0.0972,0.0841,0.0624,0.0499,0.0406,0.0401,0.0346,0.0347,0.0348,0.0387,0.0374,0.0335,0.0336,0.0336,0.0336,0.0336,0,-0.0005,0.0032,0.0108,0.0236,0.0323,0.0375,0.0507,0.0606,0.0789,0.0887,0.0987,0.0846,0.0713,0.0567,0.0432,0.0348,0.033,0.0306,0.0295,0.0298,0.0301,0.0339,0.0273,0.0273,0.0272,0.0272,0,0,-0.0013,0.0012,0.0066,0.0235,0.0332,0.0471,0.0565,0.0719,0.0825,0.0937,0.0949,0.0881,0.0714,0.0576,0.0443,0.0381,0.0366,0.0358,0.0415,0.0422,0.0426,0.0325,0.0387,0,0,0,0,0]}],[{"header":{"parameterUnit":"m.s-1","parameterCategory":2,"la1":30.2991,"la2":30.254,"lo1":-89.0895,"lo2":-89.0444,"dy":0.0017,"dx":0.0017,"nx":28,"ny":28,"refTime":"2025-04-10T21:00:00:Z","depth":"4","parameterNumber":2,"parameterNumberName":"U-component_of_CURRENTS"},"data":[0,0,0,0,0,0,0,0,0,0,0,0,0,0,0,0,0,0,0,0,0,0,0,0,0,0,0,0,0,0,0,0,0,0,0,0,0,0,0,0,0,0,0,0,0,0,0,0,0,0,0,0,0,0,0,0,0,0,-0.0596,-0.0598,0,-0.0649,-0.0648,-0.0647,-0.0577,-0.0576,-0.0575,-0.0574,-0.0632,-0.0634,-0.0637,0,0,0,0,0,0,0,0,0,0,0,0,0,-0.049,-0.049,-0.0595,-0.0598,-0.06,-0.0649,-0.0648,-0.0647,-0.0577,-0.0576,-0.0575,-0.0573,-0.0631,-0.0634,-0.0637,0,0,0,0,0,0,0,0,0,0,0,0,0,-0.0522,-0.049,-0.0595,-0.0584,-0.0585,-0.0649,-0.0648,-0.0647,-0.0577,-0.0576,-0.0574,-0.0573,-0.063,-0.0634,-0.0637,-0.0687,0,0,-0.0648,-0.065,0,0,0,0,0,0,0,0,-0.052,-0.0523,-0.0583,-0.0585,-0.0586,-0.062,-0.0633,-0.0667,-0.0577,-0.0561,-0.0574,-0.0572,-0.0641,-0.0644,-0.0631,-0.069,-0.0692,-0.0649,-0.0651,-0.0652,-0.0653,0,0,0,0,0,0,0,-0.0517,-0.0521,-0.0598,-0.0586,-0.0588,-0.0598,-0.0598,-0.0638,-0.0594,-0.0562,-0.0562,-0.0597,-0.0639,-0.0628,-0.0633,-0.0693,-0.0648,-0.0652,-0.0654,-0.0655,-0.0775,-0.0776,0,0,0,0,0,0,-0.0546,-0.0519,-0.0597,-0.0602,-0.0569,-0.0602,-0.0601,-0.0596,-0.0594,-0.0597,-0.0598,-0.0594,-0.0622,-0.0628,-0.0635,-0.064,-0.0652,-0.0656,-0.0658,-0.0774,-0.0775,-0.0777,0,0,0,0,0,0,-0.0542,-0.055,-0.0595,-0.0578,-0.0587,-0.0606,-0.06,-0.0598,-0.0607,-0.0624,-0.0623,-0.0613,-0.0622,-0.063,-0.0679,-0.0644,-0.0657,-0.0661,-0.0773,-0.0775,-0.0776,-0.0686,0,0,0,0,0,0,-0.0538,-0.0547,-0.0558,-0.0579,-0.0589,-0.0614,-0.0604,-0.0601,-0.0638,-0.0632,-0.0638,-0.0639,-0.0621,-0.0674,-0.0683,-0.0649,-0.0663,-0.0772,-0.0774,-0.0776,-0.0688,-0.0684,-0.0682,0,0,0,0,0,-0.0533,-0.0545,-0.0556,-0.0568,-0.0599,-0.0616,-0.0618,-0.0618,-0.0641,-0.0623,-0.0651,-0.064,-0.0691,-0.0679,-0.0689,-0.0655,-0.0771,-0.0773,-0.0775,-0.0689,-0.0685,-0.0682,0,0,0,0,0,0,-0.0507,-0.0542,-0.0553,-0.0576,-0.0594,-0.061,-0.0632,-0.0643,-0.0652,-0.0673,-0.0671,-0.0674,-0.0705,-0.0718,-0.0704,-0.0701,-0.0724,-0.0728,-0.0655,-0.0651,-0.0648,-0.0652,-0.0666,0,0,0,0,0,-0.0514,-0.053,-0.0558,-0.0583,-0.06,-0.0627,-0.0647,-0.0651,-0.0675,-0.0676,-0.0691,-0.0714,-0.0722,-0.0719,-0.0746,-0.0755,-0.0757,-0.0741,-0.0737,-0.0734,-0.0748,-0.072,-0.0714,-0.0784,-0.0784,-0.0784,0,0,-0.052,-0.0547,-0.0557,-0.0582,-0.0607,-0.0626,-0.0629,-0.0671,-0.0678,-0.0691,-0.0718,-0.073,-0.0736,-0.0728,-0.074,-0.0728,-0.0713,-0.0737,-0.0733,-0.075,-0.0721,-0.0714,-0.0707,-0.0786,-0.0785,-0.0785,0,0,-0.0534,-0.0559,-0.057,-0.0586,-0.0642,-0.0657,-0.0679,-0.071,-0.0705,-0.0742,-0.0745,-0.0739,-0.0776,-0.073,-0.0721,-0.0734,-0.0722,-0.0746,-0.0696,-0.0667,-0.0659,-0.0653,-0.0623,-0.0615,-0.0712,-0.0711,-0.0711,0,-0.0541,-0.0557,-0.0577,-0.0595,-0.0626,-0.0676,-0.0693,-0.07,-0.0741,-0.0742,-0.0748,-0.0783,-0.0763,-0.0733,-0.0696,-0.0718,-0.0713,-0.0693,-0.0656,-0.0651,-0.0646,-0.0617,-0.0609,-0.0707,-0.0708,-0.0708,-0.0709,0,-0.0552,-0.0575,-0.0595,-0.0626,-0.0645,-0.0684,-0.0708,-0.0728,-0.0758,-0.0759,-0.0774,-0.0756,-0.0752,-0.0727,-0.0698,-0.0648,-0.066,-0.0672,-0.065,-0.0632,-0.0604,-0.0597,-0.0702,-0.0703,-0.0704,-0.0705,0,0,-0.0542,-0.0588,-0.0599,-0.0614,-0.0672,-0.0687,-0.0713,-0.0726,-0.0736,-0.0761,-0.0755,-0.0718,-0.0715,-0.0707,-0.0676,-0.0618,-0.0526,-0.0607,-0.0608,-0.055,-0.0463,-0.0455,-0.0447,-0.0525,-0.0524,-0.0523,-0.0448,0,-0.0549,-0.0577,-0.0601,-0.064,-0.0657,-0.0698,-0.0707,-0.0727,-0.0736,-0.0739,-0.0726,-0.0713,-0.0706,-0.067,-0.0626,-0.0575,-0.051,-0.0546,-0.0517,-0.0516,-0.0486,-0.0439,-0.052,-0.0443,-0.0441,-0.044,-0.0439,0,-0.0546,-0.0568,-0.0599,-0.0633,-0.0646,-0.0676,-0.0702,-0.0704,-0.0711,-0.0704,-0.0706,-0.0713,-0.0651,-0.0639,-0.0563,-0.0591,-0.0515,-0.0472,-0.0469,-0.0495,-0.0496,-0.0476,-0.0427,-0.0428,-0.0429,-0.043,-0.043,0,-0.0517,-0.0564,-0.0594,-0.0611,-0.0657,-0.0674,-0.0689,-0.0698,-0.0682,-0.0666,-0.0656,-0.0655,-0.0629,-0.058,-0.0511,-0.0514,-0.0438,-0.0429,-0.0364,-0.0362,-0.043,-0.0438,-0.0353,-0.0353,-0.0353,-0.0354,-0.0354,0,-0.0512,-0.0537,-0.0589,-0.0604,-0.0633,-0.0652,-0.0654,-0.0661,-0.065,-0.0635,-0.0629,-0.0626,-0.0607,-0.0582,-0.0515,-0.0439,-0.0443,-0.0353,-0.0339,-0.0395,-0.04,-0.0423,-0.0433,-0.0351,-0.0351,-0.0352,-0.0352,0,-0.0489,-0.0528,-0.0556,-0.0605,-0.0623,-0.0634,-0.0636,-0.0614,-0.0605,-0.0587,-0.0573,-0.0584,-0.0542,-0.0533,-0.0445,-0.0426,-0.035,-0.0311,-0.0379,-0.0372,-0.0288,-0.0294,-0.0216,-0.0215,-0.0215,-0.0214,-0.0213,0,-0.0483,-0.0498,-0.0549,-0.0561,-0.0596,-0.0603,-0.0595,-0.059,-0.0575,-0.0566,-0.057,-0.0534,-0.0536,-0.0415,-0.0416,-0.0322,-0.03,-0.0269,-0.0265,-0.0278,-0.0272,-0.0279,-0.0286,-0.0212,-0.0212,-0.0212,-0.0211,0,-0.0466,-0.0493,-0.0514,-0.0542,-0.0559,-0.0545,-0.0552,-0.0535,-0.0529,-0.0536,-0.0494,-0.045,-0.0421,-0.0382,-0.0324,-0.0261,-0.0304,-0.0259,-0.026,-0.0255,-0.0271,-0.0268,-0.0276,-0.0208,-0.0209,-0.0209,-0.0209,0,-0.0455,-0.0463,-0.0493,-0.0515,-0.0522,-0.0498,-0.0495,-0.0474,-0.0453,-0.0462,-0.0458,-0.0415,-0.0423,-0.035,-0.0306,-0.0249,-0.0215,-0.0185,-0.0188,-0.0191,-0.0224,-0.0243,-0.0146,0,0,0,0,0,-0.0433,-0.0433,-0.045,-0.0466,-0.0465,-0.0478,-0.0475,-0.0472,-0.0494,-0.0432,-0.0432,-0.0385,-0.0304,-0.0301,-0.0225,-0.0309,-0.0238,-0.0224,-0.0212,-0.0192,-0.0196,-0.0239,0,0,0,0,0,0,-0.0415,-0.0437,-0.044,-0.0422,-0.0418,-0.0416,-0.0409,-0.0423,-0.0396,-0.0409,-0.0355,-0.0361,-0.0286,-0.0324,-0.0216,-0.0214,-0.0194,-0.0206,-0.0205,-0.019,-0.0193,-0.0196,-0.0242,0,0,0,0,0]},{"header":{"parameterUnit":"m.s-1","parameterCategory":2,"la1":30.2991,"la2":30.254,"lo1":-89.0895,"lo2":-89.0444,"dy":0.0017,"dx":0.0017,"nx":28,"ny":28,"refTime":"2025-04-10T21:00:00:Z","depth":"4","parameterNumber":3,"parameterNumberName":"V-component_of_CURRENTS"},"data":[0,0,0,0,0,0,0,0,0,0,0,0,0,0,0,0,0,0,0,0,0,0,0,0,0,0,0,0,0,0,0,0,0,0,0,0,0,0,0,0,0,0,0,0,0,0,0,0,0,0,0,0,0,0,0,0,0,0,0.0046,0.0046,0,0.0031,0.0031,0.0031,0.0055,0.0056,0.0057,0.0058,0.0104,0.0104,0.0104,0,0,0,0,0,0,0,0,0,0,0,0,0,0.0065,0.0064,0.0046,0.0046,0.0046,0.0031,0.0031,0.003,0.0055,0.0056,0.0058,0.0059,0.0104,0.0104,0.0105,0,0,0,0,0,0,0,0,0,0,0,0,0,0.0053,0.0064,0.0046,0.0057,0.0058,0.0031,0.0031,0.003,0.0055,0.0056,0.0058,0.0059,0.0104,0.0104,0.0105,0.008,0,0,0.0106,0.0106,0,0,0,0,0,0,0,0,0.0054,0.0052,0.0055,0.0056,0.0057,0.0047,0.0054,0.005,0.0055,0.0055,0.0058,0.006,0.009,0.0092,0.0084,0.0082,0.0084,0.0106,0.0107,0.0107,0.0107,0,0,0,0,0,0,0,0.0055,0.0053,0.0039,0.0055,0.0056,0.0052,0.0052,0.0053,0.0066,0.0055,0.0057,0.0056,0.0091,0.0083,0.0085,0.0085,0.0106,0.0107,0.0107,0.0107,0.0103,0.0102,0,0,0,0,0,0,0.0058,0.0054,0.004,0.0039,0.006,0.0051,0.0051,0.0048,0.0064,0.0068,0.0055,0.0058,0.0082,0.0085,0.0087,0.0053,0.0107,0.0107,0.0108,0.0103,0.0103,0.0102,0,0,0,0,0,0,0.0058,0.0057,0.004,0.0047,0.0045,0.0049,0.0046,0.0047,0.0027,0.0064,0.0069,0.0033,0.0083,0.0086,0.0087,0.0055,0.0108,0.0108,0.0104,0.0103,0.0103,-0.0011,0,0,0,0,0,0,0.0059,0.0057,0.0053,0.0047,0.0044,0.0023,0.0045,0.0046,0.0026,0.0028,0.0046,0.0053,0.0084,0.0086,0.0087,0.0057,0.0108,0.0104,0.0104,0.0103,-0.0007,-0.0016,-0.0023,0,0,0,0,0,0.006,0.0046,0.0053,0.0052,0.004,0.0022,0.002,0.0027,0.0023,0.0013,0.0027,0.0051,0.0083,0.0085,0.0087,0.0056,0.0105,0.0104,0.0103,-0.0003,-0.0014,-0.0023,0,0,0,0,0,0,0.0045,0.0047,0.0055,0.0042,0.0034,0.0027,0.0017,0.0008,0.0006,0.0006,0.0036,0.0043,0.0025,0.0064,0.0066,0.0058,0.0101,0.01,0.002,0.001,0.0002,0.0035,0.0109,0,0,0,0,0,0.0041,0.0039,0.0035,0.0024,0.0018,0.0009,-0.0001,-0.0004,-0.0006,-0.0007,-0.0002,0.0016,0.0022,0.0035,0.0043,0.0037,0.0071,0.0025,0.0017,0.0009,0.0041,0.0026,0.0018,0.0099,0.0099,0.0099,0,0,0.0031,0.0034,0.0031,0.0022,0.0016,-0.0003,0.0006,-0.0019,-0.004,-0.0002,-0.0034,-0.0028,0.001,0.0,-0.0001,0.0031,0.0006,0.0008,0.0001,0.0038,0.0024,0.0015,0.0008,0.0098,0.0099,0.0099,0,0,0.0013,0.0012,0.0006,-0.0002,-0.0014,-0.0026,-0.004,-0.0065,-0.0077,-0.0108,-0.0087,-0.0092,-0.0089,-0.0062,-0.0047,-0.0091,-0.0053,-0.0094,-0.0096,-0.0114,-0.0121,-0.0127,-0.0095,-0.0097,-0.0081,-0.0081,-0.0081,0,0.0002,-0.0002,-0.0002,-0.0011,-0.0021,-0.0041,-0.0062,-0.0085,-0.0111,-0.0121,-0.0124,-0.0134,-0.0114,-0.0109,-0.011,-0.0113,-0.0095,-0.0073,-0.0127,-0.0132,-0.0136,-0.0102,-0.0103,-0.0087,-0.0086,-0.0086,-0.0085,0,-0.0018,-0.0022,-0.0032,-0.0043,-0.0061,-0.0084,-0.0111,-0.0143,-0.0174,-0.019,-0.022,-0.0206,-0.0192,-0.0204,-0.0164,-0.0177,-0.0148,-0.0159,-0.011,-0.0152,-0.0112,-0.0111,-0.0095,-0.0093,-0.0091,-0.009,0,0,-0.0037,-0.0041,-0.0043,-0.0046,-0.0079,-0.0097,-0.0141,-0.0175,-0.0198,-0.024,-0.0263,-0.0265,-0.0259,-0.0236,-0.0214,-0.021,-0.023,-0.0182,-0.0181,-0.0161,-0.0235,-0.0212,-0.0208,-0.0265,-0.0266,-0.0266,-0.0198,0,-0.005,-0.0057,-0.0067,-0.0095,-0.0105,-0.0133,-0.0166,-0.0202,-0.0236,-0.0267,-0.0274,-0.0286,-0.0273,-0.0264,-0.027,-0.0238,-0.023,-0.0243,-0.0183,-0.018,-0.0167,-0.0208,-0.0267,-0.0196,-0.0196,-0.0196,-0.0196,0,-0.0066,-0.0063,-0.0076,-0.01,-0.011,-0.0129,-0.0174,-0.0205,-0.0246,-0.0269,-0.029,-0.0303,-0.029,-0.0289,-0.0263,-0.0275,-0.0247,-0.0229,-0.0227,-0.0155,-0.0156,-0.0142,-0.0193,-0.0193,-0.0193,-0.0193,-0.0193,0,-0.0062,-0.0079,-0.0083,-0.0089,-0.012,-0.013,-0.0151,-0.0194,-0.0216,-0.025,-0.0271,-0.029,-0.0287,-0.0281,-0.0233,-0.0256,-0.0197,-0.0238,-0.0189,-0.0185,-0.0174,-0.0169,-0.0223,-0.0223,-0.0223,-0.0223,-0.0224,0,-0.0068,-0.0075,-0.007,-0.0069,-0.0077,-0.0105,-0.0123,-0.015,-0.0185,-0.0213,-0.0251,-0.0273,-0.0289,-0.027,-0.0234,-0.0186,-0.0204,-0.0175,-0.0174,-0.0222,-0.0222,-0.0173,-0.0168,-0.0221,-0.0221,-0.0222,-0.0222,0,-0.006,-0.006,-0.0059,-0.0067,-0.0067,-0.0064,-0.0087,-0.0106,-0.0139,-0.0175,-0.0185,-0.0246,-0.0237,-0.0218,-0.0189,-0.0179,-0.0135,-0.0108,-0.0108,-0.011,-0.0112,-0.0113,-0.0081,-0.008,-0.0079,-0.0078,-0.0078,0,-0.0053,-0.0046,-0.0038,-0.0018,-0.0011,-0.001,-0.0018,-0.0064,-0.0096,-0.016,-0.0184,-0.0197,-0.0229,-0.0147,-0.0146,-0.0078,-0.0077,-0.0045,-0.0129,-0.0098,-0.0101,-0.0104,-0.0107,-0.0076,-0.0076,-0.0076,-0.0075,0,-0.0033,-0.0026,-0.0021,0.0022,0.0035,0.0017,-0.0002,-0.0032,-0.0105,-0.0121,-0.0165,-0.0171,-0.0162,-0.0149,-0.0075,-0.0038,-0.0073,-0.0036,-0.0039,-0.0118,-0.0092,-0.0096,-0.01,-0.0072,-0.0073,-0.0073,-0.0073,0,-0.0013,-0.0002,0.0016,0.005,0.0081,0.0042,0.0008,-0.0035,-0.0074,-0.0153,-0.0155,-0.0161,-0.0166,-0.0126,-0.0063,-0.0018,-0.0049,-0.0054,-0.0058,-0.0061,-0.009,-0.0055,-0.0015,0,0,0,0,0,0.0003,0.0008,0.0044,0.0051,0.0086,0.0095,0.0021,-0.0035,-0.0105,-0.0119,-0.0141,-0.0127,-0.0098,-0.0098,-0.0051,-0.0081,-0.0055,-0.0029,-0.0064,-0.0053,-0.0057,-0.0094,0,0,0,0,0,0,0.0003,0.003,0.0037,0.0067,0.0097,0.0082,0.0044,-0.0033,-0.0059,-0.0102,-0.0078,-0.0078,-0.004,-0.0074,-0.0019,-0.0017,-0.0034,-0.0011,-0.001,-0.0051,-0.0054,-0.0058,-0.0097,0,0,0,0,0]}]]